Simultaneous Nadir Overpasses (SNOs) Predictions

Prediction of SNOs between GOES-17 and METOP-B Satellite Orbit:

Table of predicted SNOs for the next 14.0 days since TLE Epoch: 6/29/2024
Index Date Time (GOES-17) GOES-17 Lat,Lon METOP-B Lat,Lon Distance(km) Time Diff (sec)
1 07/01/2024 04:21:34 0.01,-104.70 0.00,-104.69 1.74 80
2 07/03/2024 16:17:12 0.01,-104.73 -0.07,-104.30 48.52 80
3 07/05/2024 04:38:58 -0.01,-104.71 -0.92,-108.93 480.92 80
4 07/06/2024 04:15:40 -0.00,-104.71 0.14,-103.95 86.30 80
5 07/07/2024 16:37:17 -0.00,-104.73 0.84,-108.55 434.25 80
6 07/08/2024 16:14:00 -0.01,-104.74 -0.29,-103.57 133.20 80
7 07/10/2024 04:35:44 0.02,-104.72 -0.74,-108.20 395.45 80
8 07/11/2024 04:12:27 0.02,-104.73 0.34,-103.21 172.31 80
9 07/12/2024 16:31:23 -0.03,-104.76 0.63,-107.82 347.45 80
